Location: Krasnoyarskiy Pitomnik
(51.1333°N, 71.6167°E)
Time: 23:28:49
(UTC+00:00)

Tiros 1 - All Passes

Search period start: 16 April 2024 00:00
Search period end: 26 April 2024 00:00
Orbit: 625 x 657 km, 48.4° (Epoch: 16 April)

Date Brightness Start Highest point End Pass type
(mag) Time Alt. Az. Time Alt. Az. Time Alt. Az.
16 Apr - 00:25:20 10° W 00:29:52 59° S 00:34:23 10° ESE daylight
16 Apr - 02:07:27 10° W 02:11:28 30° SSW 02:15:30 10° SSE daylight
16 Apr - 19:46:53 10° S 19:49:10 14° SE 19:51:29 10° ESE visible
16 Apr - 21:26:05 10° SW 21:30:22 39° SSE 21:34:39 10° E visible
16 Apr - 23:07:32 10° WSW 23:12:05 63° S 23:16:38 10° E visible
17 Apr - 00:49:27 10° W 00:53:53 47° SSW 00:58:17 10° SE daylight
17 Apr - 02:32:01 10° W 02:35:14 19° SW 02:38:27 10° S daylight
17 Apr - 20:09:11 10° SSW 20:12:51 24° SSE 20:16:31 10° E visible
17 Apr - 21:49:50 10° WSW 21:54:20 53° SSE 21:58:48 10° E visible
17 Apr - 23:31:36 10° W 23:36:09 60° S 23:40:40 10° ESE visible
18 Apr - 01:13:40 10° W 01:17:47 33° SSW 01:21:54 10° SE daylight
18 Apr - 02:58:23 10° SW 02:58:50 10° SW 02:59:17 10° SW daylight
18 Apr - 18:53:43 10° SSE 18:55:32 12° SE 18:57:22 10° ESE visible
18 Apr - 20:32:26 10° SW 20:36:40 36° SSE 20:40:53 10° E visible
18 Apr - 22:13:48 10° WSW 22:18:22 62° S 22:22:55 10° E visible
18 Apr - 23:55:43 10° W 00:00:10 50° SSW 00:04:36 10° ESE daylight
19 Apr - 01:38:09 10° W 01:41:34 21° SW 01:44:59 10° SSE daylight
19 Apr - 19:15:39 10° SSW 19:19:10 22° SE 19:22:41 10° E visible
19 Apr - 20:56:08 10° WSW 21:00:36 50° SSE 21:05:04 10° E visible
19 Apr - 22:37:51 10° W 22:42:25 62° S 22:46:57 10° ESE visible
20 Apr - 00:19:53 10° W 00:24:06 35° SSW 00:28:16 10° SE daylight
20 Apr - 02:03:37 10° WSW 02:05:12 12° SW 02:06:46 10° SSW daylight
20 Apr - 18:00:49 10° SSE 18:01:53 11° SE 18:02:57 10° ESE night (unlit)
20 Apr - 19:38:47 10° SW 19:42:58 34° SSE 19:47:07 10° E visible
20 Apr - 21:20:03 10° WSW 21:24:37 61° S 21:29:10 10° E visible
20 Apr - 23:01:56 10° W 23:06:26 52° SSW 23:10:53 10° ESE visible
21 Apr - 00:44:17 10° W 00:47:53 23° SSW 00:51:29 10° SSE daylight
21 Apr - 18:22:09 10° S 18:25:28 20° SE 18:28:48 10° E night (unlit)
21 Apr - 20:02:24 10° WSW 20:06:52 48° SSE 20:11:18 10° E visible
21 Apr - 21:44:05 10° W 21:48:40 62° S 21:53:13 10° ESE visible
21 Apr - 23:26:06 10° W 23:30:22 38° SSW 23:34:37 10° SE visible
22 Apr - 01:09:23 10° WSW 01:11:32 13° SW 01:13:40 10° SSW daylight
22 Apr - 18:45:08 10° SW 18:49:14 31° SSE 18:53:19 10° E visible
22 Apr - 20:26:17 10° WSW 20:30:51 59° S 20:35:23 10° E visible
22 Apr - 22:08:10 10° W 22:12:41 54° SSW 22:17:10 10° ESE visible
22 Apr - 23:50:25 10° W 23:54:11 25° SSW 23:57:55 10° SSE daylight
23 Apr - 17:28:39 10° S 17:31:47 18° SE 17:34:54 10° E night (unlit)
23 Apr - 19:08:40 10° SW 19:13:07 45° SSE 19:17:32 10° E visible
23 Apr - 20:50:18 10° W 20:54:53 63° S 20:59:27 10° E visible
23 Apr - 22:32:17 10° W 22:36:38 41° SSW 22:40:56 10° SE visible
24 Apr - 00:15:17 10° WSW 00:17:51 15° SW 00:20:24 10° S daylight
24 Apr - 17:51:29 10° SSW 17:55:30 29° SSE 17:59:30 10° E night (unlit)
24 Apr - 19:32:31 10° WSW 19:37:05 58° S 19:41:38 10° E visible
24 Apr - 21:14:22 10° W 21:18:55 57° S 21:23:26 10° ESE visible
24 Apr - 22:56:34 10° W 23:00:28 27° SSW 23:04:20 10° SSE visible
25 Apr - 16:35:12 10° S 16:38:04 16° SE 16:40:55 10° ESE night (unlit)
25 Apr - 18:14:56 10° SW 18:19:21 43° SSE 18:23:44 10° E night (unlit)
25 Apr - 19:56:30 10° W 20:01:07 63° S 20:05:40 10° E visible
25 Apr - 21:38:29 10° W 21:42:53 44° SSW 21:47:14 10° SE visible
25 Apr - 23:21:15 10° WSW 23:24:09 17° SW 23:27:02 10° S visible
